Simultaneous Nadir Overpasses (SNOs) Predictions

Prediction of SNOs between NOAA-15 and METOP-C Satellite Orbit:

Table of predicted SNOs for the next 14.0 days since TLE Epoch: 8/27/2024
Index Date (NOAA-15) Time (NOAA-15) Lat,Lon (NOAA-15) SZA (NOAA-15 ) Date (METOP-C) Time (METOP-C) Lat,Lon (METOP-C) SZA (METOP-C ) Distance(km) Time Diff (sec)
1 09/09/2024 08:16:32 81.04, 93.88 77.93 09/09/2024 08:15:21 81.03, 93.87 77.89 1.30 71
2 09/09/2024 09:07:02 -81.03, -98.62 102.05 09/09/2024 09:06:01 -81.03, -98.61 102.08 0.30 61
3 09/09/2024 09:57:31 81.03, 68.80 77.97 09/09/2024 09:56:42 81.03, 68.72 77.94 1.42 49
4 09/09/2024 10:48:02 -81.04,-124.07 102.04 09/09/2024 10:47:23 -81.03,-124.14 102.07 2.09 39
5 09/09/2024 11:38:31 81.04, 43.34 77.98 09/09/2024 11:38:04 81.03, 43.19 77.94 3.06 27
6 09/09/2024 12:29:01 -81.03,-149.15 102.00 09/09/2024 12:28:44 -81.03,-149.29 102.02 2.52 17
7 09/09/2024 13:19:31 81.05, 17.89 78.00 09/09/2024 13:19:25 81.03, 18.03 77.99 3.10 6
8 09/09/2024 14:10:01 -81.04,-174.60 101.99 09/09/2024 14:10:05 -81.04,-174.45 101.97 2.48 4
9 09/09/2024 15:00:30 81.04, -7.20 78.03 09/09/2024 15:00:46 81.04, -7.12 78.05 1.27 16
10 09/09/2024 15:51:00 -81.03, 160.32 101.95 09/09/2024 15:51:26 -81.05, 160.39 101.92 1.88 26
11 09/09/2024 16:41:29 81.03, -32.28 78.07 09/09/2024 16:42:07 81.05, -32.28 78.10 1.55 38
12 09/09/2024 17:32:00 -81.04, 134.88 101.94 09/09/2024 17:32:48 -81.04, 134.86 101.92 0.51 48
13 09/09/2024 18:22:29 81.04, -57.74 78.08 09/09/2024 18:23:29 81.04, -57.81 78.10 1.32 60



Historial Predications of SNOs between NOAA-15 and METOP-C
